Home   Weather   24°49'N, 67°04'E   Past weeks
Flag for Pakistan

Past Weather in 24°49'N, 67°04'E, Pakistan — Yesterday and Last 2 Weeks

Now
93 °F

Partly sunny.


Feels Like: 99 °F
Forecast: 95 / 85 °F
Wind: 6 mph from Northeast

Location: Karachi Airport

Current Time: Jun 16, 2019 at 1:52:31 pm

Latest Report: Jun 16, 2019 at 12:55 pm


Visibility: 4 mi

Pressure: 29.56 "Hg

Humidity: 47%

Dew Point: 70 °F

Location of 24°49'N, 67°04'ELocation

Past Weather in 24°49'N, 67°04'E — Graph

°F

24°49'N, 67°04'E Temperature Yesterday

Maximum temperature yesterday: 100 °F (at 12:25 pm)
Minimum temperature yesterday: 88 °F (at 4:55 am)
Average temperature yesterday: 93 °F

High & Low Weather Summary for the Past Weeks

 TemperatureHumidityPressure
High106 °F (Jun 13, 3:30 pm)84% (Jun 3, 1:55 am)29.71 "Hg (Jun 3, 1:55 am)
Low82 °F (Jun 3, 4:55 am)23% (Jun 6, 12:25 pm)29.39 "Hg (Jun 12, 3:27 pm)
Average91 °F62%29.57 "Hg
* Reported Jun 1 12:25 pm — Jun 16 12:25 pm, 24°49'N, 67°04'E. Weather by CustomWeather, © 2019

Note: Actual official high and low records may vary slightly from our data, if they occured in-between our weather recording intervals... More about our weather records

Advertising

24°49'N, 67°04'E Weather History for the Previous 24 Hours

Scroll right to see more
 ConditionsComfort  
Time TempWeatherWind HumidityBarometerVisibility
12:25 pm
Sun, Jun 16
93 °FPartly sunny.6 mph47%29.56 "Hg4 mi
11:55 am91 °FScattered clouds.6 mph56%29.59 "Hg4 mi
11:25 am91 °FScattered clouds.6 mph56%29.59 "Hg4 mi
10:55 am91 °FScattered clouds.12 mph56%29.59 "Hg4 mi
10:25 am91 °FScattered clouds.6 mph56%29.59 "Hg4 mi
9:54 am91 °FClear.3 mph52%29.59 "Hg4 mi
9:24 am91 °FClear.6 mph52%29.56 "Hg4 mi
8:55 am90 °FHaze.8 mph55%29.56 "Hg3 mi
8:25 am90 °FHaze.6 mph55%29.59 "Hg3 mi
7:55 am88 °FHaze.5 mph59%29.59 "Hg3 mi
7:25 am86 °FHaze.5 mph62%29.59 "Hg3 mi
6:55 am86 °FHaze.No wind62%29.56 "Hg3 mi
6:25 am86 °FScattered clouds.No wind62%29.56 "Hg3 mi
5:55 am86 °FScattered clouds.8 mph62%29.56 "Hg3 mi
5:25 am84 °FPassing clouds.5 mph70%29.53 "Hg4 mi
4:55 am86 °FPassing clouds.6 mph66%29.53 "Hg4 mi
4:25 am86 °FPassing clouds.No wind55%29.53 "Hg4 mi
3:25 am86 °FPassing clouds.5 mph66%29.53 "Hg4 mi
2:55 am86 °FPassing clouds.8 mph62%29.53 "Hg4 mi
2:25 am86 °FPassing clouds.No wind62%29.53 "Hg4 mi
1:55 am86 °FPassing clouds.5 mph66%29.53 "Hg4 mi
1:25 am86 °FPassing clouds.3 mph66%29.56 "Hg4 mi
12:55 am86 °FPassing clouds.No wind66%29.56 "Hg4 mi
12:25 am86 °FPassing clouds.8 mph66%29.56 "Hg4 mi
11:55 pm
Sat, Jun 15
88 °FPassing clouds.5 mph62%29.59 "Hg4 mi
11:25 pm88 °FPassing clouds.5 mph62%29.56 "Hg4 mi
10:55 pm88 °FPassing clouds.10 mph62%29.56 "Hg4 mi
10:25 pm88 °FPassing clouds.15 mph62%29.56 "Hg4 mi
9:55 pm88 °FPassing clouds.15 mph62%29.53 "Hg4 mi
9:25 pm90 °FPassing clouds.10 mph63%29.53 "Hg4 mi
8:55 pm90 °FPassing clouds.12 mph63%29.50 "Hg4 mi
7:55 pm91 °FPassing clouds.9 mph56%29.50 "Hg4 mi
6:55 pm93 °FScattered clouds.12 mph53%29.47 "Hg4 mi
5:55 pm97 °FScattered clouds.6 mph42%29.47 "Hg4 mi
4:55 pm97 °FPartly sunny.14 mph44%29.47 "Hg4 mi
3:55 pm97 °FScattered clouds.7 mph44%29.47 "Hg4 mi
2:55 pm100 °FScattered clouds.9 mph35%29.47 "Hg4 mi
1:55 pm100 °FScattered clouds.14 mph37%29.50 "Hg4 mi
1:25 pm100 °FScattered clouds.14 mph35%29.50 "Hg4 mi
Weather by CustomWeather, © 2019

See weather overview